Location: Ahausen
(50.4985°N, 8.2722°E)
Time: 03:42:08
(UTC+00:00)

Meteor 1-15 Rocket - Pass Details

Date: 18 September 2020
Orbit: 840 x 907 km, 81.2° (Epoch: 22 October)

Event Time Altitude Azimuth Distance (km) Brightness Sun altitude
Rises 19:51:34 0° 193° (SSW) 3,396 7.2 -21.7°
Reaches altitude 10° 19:53:58 10° 195° (SSW) 2,472 6.4 -22.0°
Maximum altitude 19:59:35 81° 282° (WNW) 877 4.3 -22.8°
Drops below altitude 10° 20:05:20 10° 11° (N) 2,531 6.9 -23.5°
Sets 20:07:49 0° 12° (NNE) 3,483 7.7 -23.8°
